Weather Roundup
Issued by NWS

Home | Current Version | Previous Version | Graphics & Text | Print | Product List | Glossary On
Versions: 1 2 3 4 5 6 7 8 9 10 11 12 13 14 15 16 17 18 19 20 21 22 23 24 25 26 27 28 29 30 31 32 33 34 35 36 37 38 39 40 41 42 43 44 45 46 47 48 49 50
000
NZUS93 KARX 070310
HRRWXR

CURRENT HOURLY OBSERVATIONS ACROSS
MUCH OF THE UPPER MISSISSIPPI VALLEY
NATIONAL WEATHER SERVICE LA CROSSE WI
1000 PM CDT WED MAY 06 2015


...SOUTHEAST MINNESOTA...


CITY           SKY/WX    TMP DP  RH WIND       PRES   REMARKS
ROCHESTER      PTCLDY    64  59  83 S13       29.94R
ROCHESTER/MAYO FAIR      65  60  84 SE12G17   29.93R
WINONA         MOCLDY    63  59  88 SE7       29.95R
AUSTIN         CLOUDY    64  59  82 SE8       29.91R
ALBERT LEA     MOCLDY    66  57  72 SE15      29.89S
DODGE CENTER   MOCLDY    64  61  88 S15       29.91S
PRESTON        PTCLDY    64  58  82 S9        29.95R
OWATONNA       MOCLDY    68  61  77 SE14      29.89R
FARIBAULT      MOCLDY    70  59  68 SE12G21   29.88R
$$

...ELSEWHERE IN MINNESOTA...


CITY           SKY/WX    TMP DP  RH WIND       PRES   REMARKS
MINNEAPOLIS    MOCLDY    67  61  81 SE10      29.87R
INTNL FALLS    LGT RAIN  63  53  70 SE10      29.87R
DULUTH         CLOUDY    57  44  62 E12       29.92F
RED WING       MOCLDY    64  61  88 SE9       29.90R
REDWOOD FALLS  PTCLDY    67  60  78 SE15      29.77F
MANKATO        MOCLDY    70  57  64 S17G24    29.85R
WORTHINGTON    MOCLDY    64  55  72 SE16      29.77S
FAIRMONT       PTCLDY    66  36  32 SE16      29.82F
$$

...SOUTHWEST WISCONSIN...


CITY           SKY/WX    TMP DP  RH WIND       PRES   REMARKS
LA CROSSE      CLOUDY    67  60  78 S7        29.96R
PRAIRIE DU CHI MOCLDY    67  56  68 SE5       29.98R
BOSCOBEL       MOCLDY    64  58  80 CALM      29.99R
LONE ROCK      PTCLDY    65  59  81 NE5       30.00S
PLATTEVILLE    CLOUDY    66  61  83 E5        30.01R
FORT MC COY    MOCLDY    63  61  93 CALM      30.01R
CAMP DOUGLAS   MOCLDY    68  68 100 SE6       30.00R
VIROQUA        CLOUDY    66  58  76 S8        30.01R
WIS DELLS      PTCLDY    64  58  80 S7        30.03R
$$

...ELSEWHERE IN WISCONSIN...


CITY           SKY/WX    TMP DP  RH WIND       PRES   REMARKS
MILWAUKEE      FOG       47  45  93 NE6       30.10S VSB 1/8
MADISON        PTCLDY    65  58  78 SE10      30.02R
GREEN BAY      PTCLDY    56  51  84 E6        30.08S
EAU CLAIRE     LGT RAIN  64  60  87 SE9       29.95S
BLACK RVR FLS  FAIR      63  63 100 CALM      29.99R
MEDFORD        CLOUDY    64  57  78 SE8       30.02R
WAUSAU         MOCLDY    62  57  83 E9        30.03R
WIS RAPIDS     PTCLDY    64  57  78 SE10      30.03R
MARSHFIELD     MOCLDY    65  58  78 SE9       30.01R
RICE LAKE      CLOUDY    62  59  90 E8        29.96S
$$

...NORTHEAST IOWA...


CITY           SKY/WX    TMP DP  RH WIND       PRES   REMARKS
DECORAH        CLOUDY    64  61  88 S12G17    29.96R
MASON CITY     PTCLDY    64  59  83 SE15      29.90S
CHARLES CITY   CLOUDY    64  64 100 SE14      29.93S
OELWEIN        CLOUDY    64  61  88 SE13      29.96S
$$

...ELSEWHERE IN IOWA...


CITY           SKY/WX    TMP DP  RH WIND       PRES   REMARKS
DES MOINES     MOCLDY    69  58  67 SE13      29.88S
IOWA CITY      CLOUDY    64  61  90 E5        29.98R
FORT DODGE     CLEAR     66  57  72 SE12G21   29.86R
$$

...NORTHERN ILLINOIS...


CITY           SKY/WX    TMP DP  RH WIND       PRES   REMARKS
CHICAGO-OHARE  MOCLDY    57  51  80 NE6       30.07R
CHICAGO-MIDWAY MOCLDY    60  52  74 E6        30.08R
MOLINE         PTCLDY    65  60  84 E6        29.99R
ROCKFORD       PTCLDY    67  58  72 E10       30.04S
PEORIA         CLEAR     75  53  46 S10       30.03R
$$

NOTE: "FAIR" INDICATES FEW OR NO CLOUDS BELOW 12,000 FEET WITH NO
SIGNIFICANT WEATHER AND/OR OBSTRUCTIONS TO VISIBILITY. WIND
SPEEDS ARE IN MILES-PER-HOUR.



USA.gov is the U.S. government's official web portal to all federal, state and local government web resources and services.